Location: Bathurst
(33.4193°S, 149.5775°E)
Time: 00:39:28
(UTC+10:00)

A-11 Canister half - Pass Details

Date: 14 June 2021
Orbit: 1513 x 1687 km, 47.2° (Epoch: 28 July)

Event Time Altitude Azimuth Distance (km) Brightness Sun altitude
Rises 20:21:03 0° 259° (WSW) 4,753 12.4 -40.9°
Reaches altitude 10° 20:24:29 10° 250° (WSW) 3,796 11.6 -41.6°
Enters shadow 20:31:51 35° 201° (SSW) 2,400 10.0 -43.2°
